Regional Weather Roundup
Issued by NWS Newport/Morehead, NC

Current Version | Previous Version | Text Only | Print | Product List | Glossary Off
Versions: 1 2 3 4 5 6 7 8 9 10 11 12 13 14 15 16 17 18 19 20 21 22 23 24 25 26 27 28 29 30 31 32 33 34 35 36 37 38 39 40 41 42 43 44 45 46 47 48 49 50
000 ASUS42 KMHX 262013 RWRMHX WEATHER ROUNDUP FOR EASTERN NORTH CAROLINA NATIONAL WEATHER SERVICE NEWPORT/MOREHEAD CITY NC 400 PM EDT TUE JUL 26 2016 NOTE: "FAIR" INDICATES FEW OR NO CLOUDS BELOW 12,000 FEET WITH NO SIGNIFICANT WEATHER AND/OR OBSTRUCTIONS TO VISIBILITY NCZ015>017-031-032-045>047-102-103-262100- NORTH COAST CITY SKY/WX TMP DP RH WIND PRES REMARKS EDENTON MOSUNNY 96 76 51 SW5 29.92F HX 108 ELIZABETH CITY MOSUNNY 93 77 59 SW5 29.91F HX 107 KITTY HAWK CLEAR 97 74 47 SE7 29.92F HX 108 MANTEO N/A 91 79 68 N6 29.94F HX 106 $$ NCZ045>047-081-094-103-104-262100- CENTRAL COAST CITY SKY/WX TMP DP RH WIND PRES REMARKS FRISCO SUNNY 86 77 74 SW13G24 29.96F $$ NCZ095-097-098-100-101-262100- SOUTHERN COAST CITY SKY/WX TMP DP RH WIND PRES REMARKS BEAUFORT SUNNY 88 78 72 SW17 29.98F HX 101 CEDAR ISLAND NOT AVBL JACKSONVILLE SUNNY 94 74 52 SW7G17 29.95F HX 104 PINEY ISLAND CLEAR N/A N/A N/A SW14 29.95F WILMINGTON MOSUNNY 92 74 55 S10 29.98F HX 101 $$ NCZ011>013-027>030-043-044-078>080-089-090>093-098-262100- COASTAL PLAIN CITY SKY/WX TMP DP RH WIND PRES REMARKS AHOSKIE N/A 92 79 64 S5 29.91F HX 109 CLINTON CLOUDY 95 78 57 S5 29.96F HX 111 ELIZABETHTOWN SUNNY 96 73 46 SW10 29.97F HX 105 GOLDSBORO MOSUNNY 97 74 48 SW14 29.93F HX 109 GREENVILLE MOSUNNY 95 77 55 W8 29.95F HAZE HX 109 HAVELOCK SUNNY 92 76 59 S12 29.96F HX 104 KENANSVILLE NOT AVBL KINSTON CLOUDY 95 73 49 SW9 29.95F HX 105 NEW BERN SUNNY 94 75 54 SW10 29.96F HX 105 RICHLANDS SUNNY 96 76 52 SW12 29.96F HX 109 ROCKY MOUNT MOSUNNY 95 77 55 SW8 29.93F HX 109 WASHINGTON SUNNY 94 77 58 SW10 29.93F HX 107 WHITEVILLE SUNNY 95 73 48 SW7 29.98F HX 104 $$ AMZ130-135-150-152-154-156-158-170-250-252-270-ANZ085-086-088-633-658-670-262100- MARINE OBSERVATIONS STATION/POSITION TIME TEMP WIND PRES WAVE SWELL AIR SEA DIR/SP/G HT/PER HT/PER (UTC) (F) (DEG/KT/KT) (MB) (FT/S) (FT/S) CHESAPEAKE LIGHT NOT AVBL 64 E VA BEACH 1950 82 80 240/ 8/ 8 1013.5 4/ 6 3/ 6 DUCK 1900 85 61 110/ 6/ 8 1013.4 2 E DUCK 1911 73 N/A 1/ 8 OREGON INLET 1900 85 85 190/ 13/ 15 1014.0 13E OREGON INLT 2000 82 N/A 3/ 6 HATTERAS CG 1900 86 83 220/ 12/ 20 1014.7 DIAMOND BUOY 1950 84 85 240/ 19/ 23 1014.7 6/ 5 CAPE LOOKOUT 2000 87 220/ 11/ 17 1014.8 BEAUFORT LAB 1900 87 82 220/ 9/ 13 1014.9 30 SE NEW RVR IN 1908 85 85 220/ 16/ 21 1015.7 30 SE NEW RVR IN 1925 85 N/A 3/ 4 27 SE WRIGHTSVLE 1908 84 84 210/ 14/ 17 1016.2 5 SE WRIGHTSVLE 1908 83 81 220/ 16/ 19 1016.5 225 S CAPE HAT 1950 85 85 270/ 10/ 10 1018.0 2/ 8 2/ 8 41 SE CHARLESTON 1950 85 86 210/ 12/ 16 1016.4 2/ 8 2/ 8 $$

USA.gov is the U.S. government's official web portal to all federal, state and local government web resources and services.